OH2TH Weather Reports


Display with metric or nautical units.
time (UTC)temp
F
wind
direction
speed
MPH
gust
MPH
rain 1hr
in
rain 24hr
in
rain mn
in
humidity
%
barometer
mb
20260906043001 49 186 0.0 0.0 0.00 0.00 0.00 94 1000.0
20260906041501 49 343 0.0 0.0 0.00 0.00 0.00 93 1000.0
20260906040001 49 232 0.0 0.0 0.00 0.00 0.00 94 1000.0
20260906034501 49 279 0.0 0.0 0.00 0.00 0.00 96 1000.0
20260906033000 49 89 0.0 0.0 0.00 0.00 0.00 96 1000.0
20260906031505 49 269 0.0 0.0 0.00 0.00 0.00 96 1000.0
20260906030004 47 94 0.0 0.0 0.00 0.00 0.00 97 1000.0
20260906024504 47 285 0.0 0.0 0.00 0.00 0.00 97 1000.0
20260906023004 47 210 0.0 0.0 0.00 0.00 0.00 97 1000.0
20260906021503 47 68 0.0 0.0 0.00 0.00 0.00 96 1000.0
20260906020003 47 141 0.0 0.0 0.00 0.00 0.00 96 1000.0
20260906014502 47 217 0.0 0.0 0.00 0.00 0.00 97 1000.0
20260906013002 47 326 0.0 0.0 0.00 0.00 0.00 97 1000.0
20260906011501 47 246 0.0 0.0 0.00 0.00 0.00 97 1000.0
20260906010001 47 186 0.0 0.0 0.00 0.00 0.00 97 1000.0
20260906004505 47 294 0.0 0.0 0.00 0.00 0.00 97 1000.0
20260906003004 48 293 0.0 0.0 0.00 0.00 0.00 97 1000.0
20260906001504 48 246 0.0 0.0 0.00 0.00 0.00 96 1000.0
20260906000003 48 173 0.0 0.0 0.00 0.00 0.00 96 1000.0
20260905234503 48 278 0.0 0.0 0.00 0.00 0.00 96 1000.0
20260905233002 49 147 0.0 0.0 0.00 0.00 0.00 96 1000.0
20260905231501 49 117 0.0 0.0 0.00 0.00 0.00 96 1000.0
20260905230001 49 142 0.0 0.0 0.00 0.00 0.00 96 1000.0
20260905224505 49 135 0.0 0.0 0.00 0.00 0.00 96 1000.0
20260905223004 50 230 0.0 0.0 0.00 0.00 0.00 96 1000.0
20260905221503 50 154 0.0 0.0 0.00 0.00 0.00 96 1000.0
20260905220002 50 173 0.0 0.0 0.00 0.00 0.00 96 1000.0
20260905214501 50 205 0.0 0.0 0.00 0.00 0.00 96 1000.0
20260905213001 50 135 0.0 0.0 0.00 0.00 0.00 96 1000.0
20260905211505 50 129 0.0 0.0 0.00 0.00 0.00 96 1000.0
20260905210004 50 32 0.0 0.0 0.00 0.00 0.00 96 1000.0
20260905204503 50 32 0.0 0.0 0.00 0.00 0.00 95 1000.0
20260905203002 52 142 0.0 0.0 0.00 0.00 0.00 94 1000.0
20260905201501 52 212 0.0 0.0 0.00 0.00 0.00 94 1000.0
20260905200004 52 145 0.0 0.0 0.00 0.00 0.00 93 1000.0
20260905194504 53 154 0.0 0.0 0.00 0.00 0.00 93 1000.0
20260905193003 53 154 0.0 0.0 0.00 0.00 0.00 93 1000.0
20260905191502 53 103 0.0 0.0 0.00 0.00 0.00 91 1000.0
20260905190001 55 76 0.0 0.0 0.00 0.00 0.00 89 1000.0
20260905184505 55 322 0.0 0.0 0.00 0.00 0.00 87 1000.0
20260905183004 56 135 0.0 0.0 0.00 0.00 0.00 86 1000.0
20260905181503 56 186 0.0 0.0 0.00 0.00 0.00 86 1000.0
20260905180002 56 164 0.0 0.0 0.00 0.00 0.00 86 1000.0
20260905174501 56 224 0.0 0.0 0.00 0.00 0.00 85 1000.0
20260905173005 58 224 0.0 0.0 0.00 0.00 0.00 85 1000.0
20260905171504 58 147 0.0 0.0 0.00 0.00 0.00 84 1000.0
20260905170003 58 15 0.0 0.0 0.00 0.00 0.00 81 1000.0
20260905164501 58 224 0.0 0.0 0.00 0.00 0.00 79 1000.0
20260905163001 59 224 0.0 0.0 0.00 0.00 0.00 74 1000.0
20260905161505 61 224 0.0 0.0 0.00 0.00 0.00 71 1000.0
20260905160004 61 241 0.0 0.0 0.00 0.00 0.00 69 1000.0
20260905154503 61 154 0.0 0.0 0.00 0.00 0.00 67 1000.0
20260905153002 63 144 0.0 0.0 0.00 0.00 0.00 69 1000.0
20260905151502 64 154 0.0 0.0 0.00 0.00 0.00 65 1000.0
20260905150002 64 62 0.0 0.0 0.00 0.00 0.00 63 1000.0
20260905144502 64 135 0.0 0.0 0.00 0.00 0.00 62 1000.0
20260905143001 64 345 0.0 0.0 0.00 0.00 0.00 59 1000.0
20260905141501 66 323 0.0 0.0 0.00 0.00 0.00 58 1000.0
20260905140001 66 135 0.0 0.0 0.00 0.00 0.00 50 990.0
20260905134501 66 349 0.0 0.0 0.00 0.00 0.00 53 990.0
20260905133000 66 32 0.0 0.0 0.00 0.00 0.00 53 990.0
20260905131505 66 188 0.0 0.0 0.00 0.00 0.00 52 990.0
20260905130005 66 121 0.0 0.0 0.00 0.00 0.00 53 990.0
20260905124504 66 120 0.0 0.0 0.00 2.94 0.00 54 990.0
20260905123004 64 348 0.0 0.0 0.00 2.94 0.00 64 990.0
20260905121504 64 126 0.0 0.0 0.00 2.94 0.00 67 990.0
20260905120003 64 255 0.0 0.0 0.00 2.94 0.00 65 990.0
20260905114503 64 123 0.0 0.0 0.00 5.79 0.00 62 990.0
20260905113003 66 231 0.0 0.0 0.00 5.79 0.00 54 990.0
20260905111502 66 102 0.0 0.0 0.00 5.79 0.00 55 990.0
20260905110002 66 56 0.0 0.0 0.00 5.79 0.00 55 990.0
20260905104502 66 185 0.0 0.0 0.00 5.79 0.00 57 990.0
20260905103002 66 181 0.0 0.0 0.00 5.79 0.00 53 990.0
20260905101501 65 93 0.0 0.0 0.00 5.79 0.00 58 990.0
20260905100001 66 337 0.0 0.0 0.00 5.79 0.00 57 990.0
20260905094501 65 185 0.0 0.0 0.00 5.79 0.00 63 990.0
20260905093001 65 126 0.0 0.0 0.00 5.79 0.00 60 990.0
20260905091501 65 185 0.0 0.0 0.00 5.79 0.00 64 990.0
20260905090001 65 213 0.0 0.0 0.00 5.79 0.00 65 990.0
20260905084501 63 244 0.0 0.0 0.00 5.79 0.00 68 990.0
20260905083000 61 178 0.0 0.0 0.00 5.79 0.00 72 990.0
20260905081505 61 224 0.0 0.0 0.00 5.79 0.00 77 990.0
20260905080004 61 103 0.0 0.0 0.00 5.79 0.00 82 990.0
20260905074504 59 195 0.0 0.0 0.00 5.79 0.00 80 990.0
20260905073004 59 147 0.0 0.0 0.00 5.79 0.00 82 990.0
20260905071504 57 211 0.0 0.0 0.00 5.79 0.00 87 990.0
20260905070004 56 343 0.0 0.0 0.00 5.79 0.00 96 990.0
20260905064503 54 140 0.0 0.0 0.00 5.79 0.00 99 990.0
20260905063002 54 124 0.0 0.0 0.00 5.79 0.00 95 990.0
20260905061501 50 124 0.0 0.0 0.00 5.79 0.00 97 990.0
20260905060005 47 117 0.0 0.0 0.00 5.79 0.00 98 990.0
20260905054504 47 230 0.0 0.0 0.00 5.79 0.00 98 990.0
20260905053003 45 124 0.0 0.0 0.00 5.79 0.00 98 990.0
20260905051501 45 50 0.0 0.0 0.00 5.79 0.00 98 990.0
20260905050000 43 142 0.0 0.0 0.00 5.79 0.00 98 990.0
20260905044504 43 230 0.0 0.0 0.00 5.79 0.00 98 990.0